Regional Weather Roundup
Issued by NWS Upton, NY

Current Version | Previous Version | Graphics & Text | Print | Product List | Glossary Off
Versions: 1 2 3 4 5 6 7 8 9 10 11 12 13 14 15 16 17 18 19 20 21 22 23 24 25 26 27 28 29 30 31 32 33 34 35 36 37 38 39 40 41 42 43 44 45 46 47 48 49 50

000
ASUS41 KOKX 310805
RWROKX
REGIONAL WEATHER ROUNDUP
NATIONAL WEATHER SERVICE NEW YORK NY
400 AM EDT THU JUL 31 2014

NOTE: "FAIR" INDICATES FEW OR NO CLOUDS BELOW 12,000 FEET WITH NO
SIGNIFICANT WEATHER AND/OR OBSTRUCTIONS TO VISIBILITY.

NYZ071-072-176-178-NJZ106-104-310900-
NEW YORK CITY METRO AREA


CITY           SKY/WX    TMP DP  RH WIND       PRES   REMARKS
CENTRAL PARK   CLEAR     69  53  56 CALM      30.09R
LAGUARDIA APRT CLEAR     71  54  54 SW7       30.05S
KENNEDY INTL   PTCLDY    69  60  73 W7        30.07S
NEWARK/LIBERTY PTCLDY    65  56  72 SW6       30.06S
BRNX BOT. GARD   N/A     70  54  56 SW2       30.07F
TETERBORO      CLEAR     66  56  70 CALM      30.05R
$$

NYZ177-179-078>081-310900-
LONG ISLAND NEW YORK

CITY           SKY/WX    TMP DP  RH WIND       PRES   REMARKS
FARMINGDALE    CLEAR     65  61  87 CALM      30.07R
ISLIP          CLEAR     65  59  81 CALM      30.05S
SHIRLEY        CLEAR     66  63  90 S5        30.07S
WESTHAMPTON    CLEAR     54  50  86 CALM      30.08S
MONTAUK POINT    N/A     68  64  87 CALM      30.09S
$$

NYZ052-065-067-310900-
HUDSON VALLEY

CITY           SKY/WX    TMP DP  RH WIND       PRES   REMARKS
WHITE PLAINS   CLEAR     61  59  93 CALM      30.06R
NEWBURGH       CLEAR     59  55  88 CALM      30.06S
MONTGOMERY     CLEAR     56  54  93 CALM      30.05S
POUGHKEEPSIE   CLEAR     57  55  93 CALM      30.04S
ALBANY         CLOUDY    65  55  70 S6        30.02F
$$

NJZ001-105-106-008-010-013-015-019>022-104-310900-
NEW JERSEY

CITY           SKY/WX    TMP DP  RH WIND       PRES   REMARKS
NEWARK/LIBERTY PTCLDY    65  56  72 SW6       30.06S
TETERBORO      CLEAR     66  56  70 CALM      30.05R
CALDWELL       CLEAR     60  55  83 CALM      30.07S
MORRISTOWN     CLEAR     57  54  88 CALM      30.06F
SOMERVILLE     PTCLDY    56  54  93 CALM      30.05S
LINDEN         FAIR      66  56  70 CALM      30.08S
SUSSEX         PTCLDY    56  53  90 CALM      30.06S
ANDOVER          N/A     55  54  96 CALM      30.07S
TRENTON        CLEAR     60  55  83 CALM      30.06S
MILLVILLE      CLEAR     57  54  89 CALM      30.08S
ATLANTIC CITY  CLEAR     58  54  86 CALM      30.08S
WRIGHTSTOWN    CLEAR     61  57  87 S2        30.05F
TOMS RIVER     CLEAR     55  52  88 CALM      30.08S
BELMAR         CLEAR     63  54  72 SW6       30.07S
$$

PAZ047>061-062-071-310900-
EASTERN PENNSYLVANIA

CITY           SKY/WX    TMP DP  RH WIND       PRES   REMARKS
PHILADELPHIA   CLEAR     66  56  70 SW5       30.07S
ALLENTOWN      CLOUDY    63  57  81 CALM      30.06S
SCRANTON       LGT RAIN  60  56  86 E3        30.05F
$$

CTZ002-004>006-009-010-012-RIZ004-006-007-MAZ004-011-015-310900-
SOUTHERN NEW ENGLAND
 IN CT

CITY           SKY/WX    TMP DP  RH WIND       PRES   REMARKS
BRADLEY INTL   CLEAR     57  54  89 CALM      30.05R
HARTFORD       CLEAR     61  57  87 S3        30.06R
DANBURY        CLEAR     56  53  90 CALM      30.08R
WTRBRY/OXFORD  CLEAR     55  52  88 CALM      30.08S
BRIDGEPORT     CLEAR     65  61  87 CALM      30.06R
MERIDEN        CLEAR     57  54  89 CALM      30.07R
NEW HAVEN      CLEAR     64  59  83 N3        30.06R
CHESTER        FAIR      63  61  94 CALM      30.08S
GROTON         CLEAR     58  58 100 CALM      30.07R
WILLIMANTIC    PTCLDY    56  54  93 CALM      30.08R

 IN RI

CITY           SKY/WX    TMP DP  RH WIND       PRES   REMARKS
PROVIDENCE     CLEAR     58  55  90 CALM      30.08R
BLOCK ISLAND   CLEAR     64  59  82 SW6       30.08S
WESTERLY       CLEAR     58  55  90 CALM      30.08S

 IN MA

CITY           SKY/WX    TMP DP  RH WIND       PRES   REMARKS
BOSTON         PTCLDY    63  55  75 SE3       30.06R
WORCESTER      CLEAR     57  53  86 SW6       30.08R
WESTFIELD      CLEAR     56  53  90 CALM      30.06R
PROVINCETOWN   CLEAR     64  57  77 SW8       30.08R
NANTUCKET      CLEAR     65  62  90 SW3       30.09R
$$

ANZ330-335-338-340-345-350-353-355-310900-
COASTAL MARINE OBSERVATIONS


STATION/POSITION TIME  SKY/WX   TEMP    WIND        PRES    VSBY  WAVE
                                AIR SEA DIR/SP/G                  HT/PER
                 (UTC)          (F)     (DEG/KT/KT) (MB)    (MI)  (FT/S)
NY HARB ENTRANCE NOT AVBL
4S FIRE IS       NOT AVBL
23SW MTP         0800            70 70              1018.2          4/ 8
HUDSON CANYON    0800            72 74  220/  6/  8 1018.8          3/ 8
EXECUTION ROCKS  0800            69 70  200/  6/  8   N/A
WESTERN LI SOUND 0800            69     200/  2/  4   N/A           0
CENTRAL LI SOUND 0700            71 72  210/ 12/ 16   N/A           1/ 3
EASTERN LI SOUND 0700            68 67  200/  4/  4   N/A
ROBBINS REEF     0800            68     260/  9/ 11   N/A
$$


>>>>>>>>>>>>>>>>>>>>>>>>>>>> KEY <<<<<<<<<<<<<<<<<<<<<<<<<<<
>                                                          <
>     SKY/WX - SKY CONDITION/PRESENT WEATHER               <
>     TMP    - TEMPERATURE IN FAHRENHEIT                   <
>     DP     - DEWPOINT IN FAHRENHEIT                      <
>     RH     - RELATIVE HUMIDITY IN PERCENT                <
>     WIND   - DIRECTION AND SPEED IN MPH                  <
>     PRES   - MEAN SEA LEVEL PRESSURE IN INCHES OF HG     <
>     WCI    - WIND CHILL INDEX                            <
>     VSB    - VISIBILITY IN MILES                         <
>     HX     - HEAT INDEX                                  <
>     TC     - TEMPERATURE IN CELSIUS                      <
>     VRB    - VARIABLE WIND DIRECTION                     <
>                                                          <
>>>>>>>>>>>>>>>>>>>>>>>>>>>> KEY <<<<<<<<<<<<<<<<<<<<<<<<<<<





USA.gov is the U.S. government's official web portal to all federal, state and local government web resources and services.